| time (UTC) | temp C | wind direction | speed KPH | gust KPH | rain 1hr cm | rain 24hr cm | rain mn cm | humidity % | barometer mb |
| 20260509162102 | 31 | 0 | 4.8 | 3.2 | 0.00 | 0.00 | 0.00 | ||
| 20260509161602 | 31 | 318 | 4.8 | 6.4 | 0.00 | 0.00 | 0.00 | ||
| 20260509160602 | 30 | 344 | 6.4 | 3.2 | 0.00 | 0.00 | 0.00 | ||
| 20260509155602 | 30 | 359 | 8.0 | 14.5 | 0.00 | 0.00 | 0.00 | ||
| 20260509155102 | 30 | 332 | 3.2 | 9.7 | 0.00 | 0.00 | 0.00 | ||
| 20260509154602 | 29 | 359 | 8.0 | 9.7 | 0.00 | 0.00 | 0.00 | ||
| 20260509153102 | 28 | 331 | 6.4 | 6.4 | 0.00 | 0.00 | 0.00 | ||
| 20260509152602 | 27 | 341 | 6.4 | 4.8 | 0.00 | 0.00 | 0.00 | ||
| 20260509151602 | 27 | 338 | 4.8 | 8.0 | 0.00 | 0.00 | 0.00 | ||
| 20260509151102 | 27 | 331 | 4.8 | 4.8 | 0.00 | 0.00 | 0.00 | ||
| 20260509150602 | 26 | 342 | 1.6 | 0.0 | 0.00 | 0.00 | 0.00 | ||
| 20260509145602 | 26 | 355 | 6.4 | 4.8 | 0.00 | 0.00 | 0.00 | ||
| 20260509145102 | 26 | 263 | 3.2 | 4.8 | 0.00 | 0.00 | 0.00 | ||
| 20260509144602 | 26 | 331 | 3.2 | 4.8 | 0.00 | 0.00 | 0.00 | ||
| 20260509144103 | 25 | 49 | 3.2 | 4.8 | 0.00 | 0.00 | 0.00 | ||
| 20260509143602 | 25 | 351 | 3.2 | 3.2 | 0.00 | 0.00 | 0.00 | ||
| 20260509143102 | 26 | 341 | 4.8 | 3.2 | 0.00 | 0.00 | 0.00 | ||
| 20260509142102 | 25 | 187 | 3.2 | 1.6 | 0.00 | 0.00 | 0.00 | ||
| 20260509141602 | 25 | 329 | 3.2 | 0.0 | 0.00 | 0.00 | 0.00 | ||
| 20260509141102 | 25 | 304 | 4.8 | 1.6 | 0.00 | 0.00 | 0.00 | ||
| 20260509140602 | 24 | 306 | 4.8 | 4.8 | 0.00 | 0.00 | 0.00 | ||
| 20260509135602 | 24 | 307 | 4.8 | 4.8 | 0.00 | 0.00 | 0.00 | ||
| 20260509135102 | 24 | 280 | 3.2 | 1.6 | 0.00 | 0.00 | 0.00 | ||
| 20260509134602 | 24 | 338 | 3.2 | 4.8 | 0.00 | 0.00 | 0.00 | ||
| 20260509134103 | 24 | 344 | 1.6 | 3.2 | 0.00 | 0.00 | 0.00 | ||
| 20260509133602 | 23 | 338 | 4.8 | 8.0 | 0.00 | 0.00 | 0.00 | ||
| 20260509133102 | 23 | 310 | 3.2 | 4.8 | 0.00 | 0.00 | 0.00 | ||
| 20260509132602 | 22 | 321 | 4.8 | 3.2 | 0.00 | 0.00 | 0.00 | ||
| 20260509132104 | 22 | 41 | 4.8 | 3.2 | 0.00 | 0.00 | 0.00 | ||
| 20260509131602 | 22 | 1 | 6.4 | 9.7 | 0.00 | 0.00 | 0.00 | ||
| 20260509131102 | 22 | 335 | 3.2 | 4.8 | 0.00 | 0.00 | 0.00 | ||
| 20260509130602 | 21 | 328 | 4.8 | 6.4 | 0.00 | 0.00 | 0.00 | ||
| 20260509125602 | 21 | 352 | 6.4 | 8.0 | 0.00 | 0.00 | 0.00 | ||
| 20260509125102 | 21 | 8 | 4.8 | 6.4 | 0.00 | 0.00 | 0.00 | ||
| 20260509124603 | 21 | 342 | 4.8 | 3.2 | 0.00 | 0.00 | 0.00 | ||
| 20260509124102 | 21 | 332 | 6.4 | 6.4 | 0.00 | 0.00 | 0.00 | ||
| 20260509123602 | 21 | 324 | 3.2 | 6.4 | 0.00 | 0.00 | 0.00 | ||
| 20260509123102 | 21 | 336 | 3.2 | 6.4 | 0.00 | 0.00 | 0.00 | ||
| 20260509122603 | 20 | 338 | 0.0 | 0.0 | 0.00 | 0.00 | 0.00 | ||
| 20260509122102 | 20 | 342 | 1.6 | 6.4 | 0.00 | 0.00 | 0.00 | ||
| 20260509121602 | 20 | 324 | 0.0 | 1.6 | 0.00 | 0.00 | 0.00 | ||
| 20260509121103 | 20 | 318 | 0.0 | 0.0 | 0.00 | 0.00 | 0.00 | ||
| 20260509120602 | 20 | 287 | 0.0 | 0.0 | 0.00 | 0.00 | 0.00 | ||
| 20260509115602 | 19 | 293 | 1.6 | 1.6 | 0.00 | 0.00 | 0.00 | ||
| 20260509115103 | 19 | 244 | 1.6 | 3.2 | 0.00 | 0.00 | 0.00 | ||
| 20260509114603 | 19 | 252 | 1.6 | 3.2 | 0.00 | 0.00 | 0.00 | ||
| 20260509114102 | 19 | 258 | 0.0 | 0.0 | 0.00 | 0.00 | 0.00 | ||
| 20260509113603 | 19 | 267 | 0.0 | 0.0 | 0.00 | 0.00 | 0.00 | ||
| 20260509113103 | 19 | 229 | 1.6 | 1.6 | 0.00 | 0.00 | 0.00 | ||
| 20260509112603 | 20 | 211 | 0.0 | 0.0 | 0.00 | 0.00 | 0.00 | ||
| 20260509112103 | 20 | 220 | 1.6 | 1.6 | 0.00 | 0.00 | 0.00 | ||
| 20260509111603 | 19 | 252 | 1.6 | 4.8 | 0.00 | 0.00 | 0.00 | ||
| 20260509111103 | 20 | 248 | 0.0 | 0.0 | 0.00 | 0.00 | 0.00 | ||
| 20260509110602 | 20 | 255 | 1.6 | 1.6 | 0.00 | 0.00 | 0.00 | ||
| 20260509110104 | 20 | 269 | 3.2 | 3.2 | 0.00 | 0.00 | 0.00 | ||
| 20260509105603 | 20 | 245 | 0.0 | 0.0 | 0.00 | 0.00 | 0.00 | ||
| 20260509105103 | 20 | 289 | 1.6 | 3.2 | 0.00 | 0.00 | 0.00 | ||
| 20260509104603 | 20 | 289 | 0.0 | 0.0 | 0.00 | 0.00 | 0.00 | ||
| 20260509104108 | 20 | 289 | 0.0 | 0.0 | 0.00 | 0.00 | 0.00 | ||
| 20260509103603 | 21 | 289 | 0.0 | 0.0 | 0.00 | 0.00 | 0.00 | ||
| 20260509103103 | 21 | 289 | 0.0 | 0.0 | 0.00 | 0.00 | 0.00 | ||
| 20260509102602 | 21 | 266 | 3.2 | 4.8 | 0.00 | 0.00 | 0.00 | ||
| 20260509101603 | 21 | 244 | 3.2 | 4.8 | 0.00 | 0.00 | 0.00 | ||
| 20260509100605 | 21 | 258 | 0.0 | 0.0 | 0.00 | 0.00 | 0.00 | ||
| 20260509095603 | 21 | 204 | 1.6 | 0.0 | 0.00 | 0.00 | 0.00 | ||
| 20260509095103 | 21 | 286 | 0.0 | 0.0 | 0.00 | 0.00 | 0.00 | ||
| 20260509094603 | 21 | 286 | 0.0 | 0.0 | 0.00 | 0.00 | 0.00 | ||
| 20260509094103 | 21 | 351 | 1.6 | 0.0 | 0.00 | 0.00 | 0.00 | ||
| 20260509093603 | 21 | 338 | 4.8 | 6.4 | 0.00 | 0.00 | 0.00 | ||
| 20260509093103 | 21 | 351 | 4.8 | 4.8 | 0.00 | 0.00 | 0.00 | ||
| 20260509092603 | 21 | 352 | 9.7 | 16.1 | 0.00 | 0.00 | 0.00 | ||
| 20260509092103 | 21 | 359 | 4.8 | 4.8 | 0.00 | 0.00 | 0.00 | ||
| 20260509091604 | 21 | 328 | 8.0 | 11.3 | 0.00 | 0.00 | 0.00 | ||
| 20260509091103 | 21 | 228 | 1.6 | 1.6 | 0.00 | 0.00 | 0.00 | ||
| 20260509090603 | 21 | 201 | 3.2 | 1.6 | 0.00 | 0.00 | 0.00 | ||
| 20260509090104 | 21 | 53 | 1.6 | 0.0 | 0.00 | 0.00 | 0.00 | ||
| 20260509085103 | 21 | 256 | 6.4 | 6.4 | 0.00 | 0.00 | 0.00 | ||
| 20260509084604 | 21 | 231 | 6.4 | 9.7 | 0.00 | 0.00 | 0.00 | ||
| 20260509083604 | 21 | 234 | 6.4 | 9.7 | 0.00 | 0.00 | 0.00 | ||
| 20260509083103 | 21 | 210 | 4.8 | 6.4 | 0.00 | 0.00 | 0.00 | ||
| 20260509082603 | 21 | 225 | 4.8 | 11.3 | 0.00 | 0.00 | 0.00 | ||
| 20260509081603 | 21 | 206 | 4.8 | 4.8 | 0.00 | 0.00 | 0.00 | ||
| 20260509081103 | 21 | 197 | 3.2 | 1.6 | 0.00 | 0.00 | 0.00 | ||
| 20260509080603 | 21 | 196 | 4.8 | 4.8 | 0.00 | 0.00 | 0.00 | ||
| 20260509075603 | 21 | 175 | 3.2 | 3.2 | 0.00 | 0.00 | 0.00 | ||
| 20260509075103 | 21 | 201 | 3.2 | 3.2 | 0.00 | 0.00 | 0.00 | ||
| 20260509074603 | 21 | 165 | 0.0 | 1.6 | 0.00 | 0.00 | 0.00 | ||
| 20260509074104 | 21 | 184 | 3.2 | 3.2 | 0.00 | 0.00 | 0.00 | ||
| 20260509073603 | 21 | 170 | 3.2 | 1.6 | 0.00 | 0.00 | 0.00 | ||
| 20260509073103 | 21 | 234 | 3.2 | 8.0 | 0.00 | 0.00 | 0.00 | ||
| 20260509072603 | 21 | 248 | 3.2 | 4.8 | 0.00 | 0.00 | 0.00 | ||
| 20260509071603 | 21 | 180 | 4.8 | 3.2 | 0.00 | 0.00 | 0.00 | ||
| 20260509071104 | 21 | 283 | 3.2 | 1.6 | 0.00 | 0.00 | 0.00 | ||
| 20260509070603 | 21 | 228 | 4.8 | 6.4 | 0.00 | 0.00 | 0.00 | ||
| 20260509065603 | 21 | 228 | 3.2 | 4.8 | 0.00 | 0.00 | 0.00 | ||
| 20260509065104 | 21 | 227 | 1.6 | 1.6 | 0.00 | 0.00 | 0.00 | ||
| 20260509063603 | 21 | 255 | 1.6 | 1.6 | 0.00 | 0.00 | 0.00 | ||
| 20260509063104 | 21 | 258 | 1.6 | 1.6 | 0.00 | 0.00 | 0.00 | ||
| 20260509061604 | 21 | 234 | 0.0 | 0.0 | 0.00 | 0.00 | 0.00 | ||
| 20260509060604 | 21 | 327 | 0.0 | 0.0 | 0.00 | 0.00 | 0.00 | ||
| 20260509060104 | 21 | 327 | 0.0 | 0.0 | 0.00 | 0.00 | 0.00 | ||
| 20260509055606 | 21 | 327 | 0.0 | 0.0 | 0.00 | 0.00 | 0.00 | ||
| 20260509055104 | 21 | 327 | 0.0 | 0.0 | 0.00 | 0.00 | 0.00 | ||
| 20260509054604 | 21 | 327 | 0.0 | 0.0 | 0.00 | 0.00 | 0.00 | ||
| 20260509053604 | 21 | 327 | 0.0 | 0.0 | 0.00 | 0.00 | 0.00 | ||
| 20260509051604 | 21 | 348 | 4.8 | 6.4 | 0.00 | 0.00 | 0.00 | ||
| 20260509051104 | 20 | 244 | 0.0 | 0.0 | 0.00 | 0.00 | 0.00 | ||
| 20260509050604 | 21 | 244 | 0.0 | 0.0 | 0.00 | 0.00 | 0.00 | ||
| 20260509050104 | 21 | 244 | 0.0 | 0.0 | 0.00 | 0.00 | 0.00 | ||
| 20260509045604 | 21 | 244 | 0.0 | 0.0 | 0.00 | 0.00 | 0.00 | ||
| 20260509045104 | 21 | 244 | 0.0 | 0.0 | 0.00 | 0.00 | 0.00 | ||
| 20260509044604 | 21 | 244 | 0.0 | 0.0 | 0.00 | 0.00 | 0.00 | ||
| 20260509043604 | 21 | 197 | 0.0 | 0.0 | 0.00 | 0.00 | 0.00 | ||
| 20260509043104 | 22 | 197 | 3.2 | 1.6 | 0.00 | 0.00 | 0.00 | ||
| 20260509042604 | 22 | 227 | 1.6 | 4.8 | 0.00 | 0.00 | 0.00 | ||
| 20260509041604 | 22 | 179 | 1.6 | 1.6 | 0.00 | 0.00 | 0.00 | ||
| 20260509041105 | 22 | 217 | 0.0 | 0.0 | 0.00 | 0.00 | 0.00 | ||
| 20260509040605 | 22 | 183 | 1.6 | 1.6 | 0.00 | 0.00 | 0.00 | ||
| 20260509040104 | 22 | 107 | 1.6 | 0.0 | 0.00 | 0.00 | 0.00 | ||
| 20260509035604 | 22 | 110 | 0.0 | 0.0 | 0.00 | 0.00 | 0.00 | ||
| 20260509035104 | 22 | 110 | 0.0 | 0.0 | 0.00 | 0.00 | 0.00 | ||
| 20260509034604 | 22 | 110 | 0.0 | 0.0 | 0.00 | 0.00 | 0.00 | ||
| 20260509034104 | 22 | 110 | 0.0 | 0.0 | 0.00 | 0.00 | 0.00 | ||
| 20260509033604 | 22 | 110 | 0.0 | 0.0 | 0.00 | 0.00 | 0.00 | ||
| 20260509033105 | 22 | 110 | 0.0 | 0.0 | 0.00 | 0.00 | 0.00 | ||
| 20260509032605 | 22 | 110 | 0.0 | 0.0 | 0.00 | 0.00 | 0.00 | ||
| 20260509032104 | 22 | 110 | 0.0 | 0.0 | 0.00 | 0.00 | 0.00 | ||
| 20260509031605 | 22 | 110 | 0.0 | 0.0 | 0.00 | 0.00 | 0.00 | ||
| 20260509031104 | 22 | 99 | 0.0 | 0.0 | 0.00 | 0.00 | 0.00 | ||
| 20260509030604 | 22 | 165 | 0.0 | 0.0 | 0.00 | 0.00 | 0.00 | ||
| 20260509025605 | 22 | 155 | 0.0 | 0.0 | 0.00 | 0.00 | 0.00 | ||
| 20260509025104 | 22 | 155 | 0.0 | 0.0 | 0.00 | 0.00 | 0.00 | ||
| 20260509024604 | 22 | 76 | 3.2 | 1.6 | 0.00 | 0.00 | 0.00 | ||
| 20260509023604 | 22 | 200 | 1.6 | 1.6 | 0.00 | 0.00 | 0.00 | ||
| 20260509023104 | 22 | 175 | 3.2 | 4.8 | 0.00 | 0.00 | 0.00 | ||
| 20260509022605 | 22 | 97 | 1.6 | 0.0 | 0.00 | 0.00 | 0.00 | ||
| 20260509021604 | 22 | 159 | 1.6 | 3.2 | 0.00 | 0.00 | 0.00 | ||
| 20260509021104 | 22 | 180 | 1.6 | 3.2 | 0.00 | 0.00 | 0.00 | ||
| 20260509020605 | 22 | 180 | 3.2 | 4.8 | 0.00 | 0.00 | 0.00 | ||
| 20260509015604 | 22 | 139 | 0.0 | 0.0 | 0.00 | 0.00 | 0.00 | ||
| 20260509015105 | 22 | 189 | 0.0 | 0.0 | 0.00 | 0.00 | 0.00 | ||
| 20260509014604 | 22 | 169 | 1.6 | 3.2 | 0.00 | 0.00 | 0.00 | ||
| 20260509013605 | 23 | 107 | 1.6 | 1.6 | 0.00 | 0.00 | 0.00 | ||
| 20260509012605 | 22 | 175 | 1.6 | 3.2 | 0.00 | 0.00 | 0.00 | ||
| 20260509012105 | 22 | 124 | 1.6 | 0.0 | 0.00 | 0.00 | 0.00 | ||
| 20260509011105 | 22 | 165 | 0.0 | 0.0 | 0.00 | 0.00 | 0.00 | ||
| 20260509010605 | 22 | 165 | 0.0 | 0.0 | 0.00 | 0.00 | 0.00 | ||
| 20260509005605 | 22 | 176 | 0.0 | 0.0 | 0.00 | 0.00 | 0.00 | ||
| 20260509005105 | 23 | 176 | 0.0 | 0.0 | 0.00 | 0.00 | 0.00 | ||
| 20260509004605 | 23 | 176 | 3.2 | 0.0 | 0.00 | 0.00 | 0.00 | ||
| 20260509003605 | 23 | 200 | 0.0 | 1.6 | 0.00 | 0.00 | 0.00 | ||
| 20260509003105 | 23 | 100 | 1.6 | 0.0 | 0.00 | 0.00 | 0.00 | ||
| 20260509002105 | 22 | 114 | 1.6 | 1.6 | 0.00 | 0.00 | 0.00 | ||
| 20260509001605 | 23 | 166 | 1.6 | 4.8 | 0.00 | 0.00 | 0.00 | ||
| 20260509001105 | 23 | 94 | 0.0 | 0.0 | 0.00 | 0.00 | 0.00 | ||
| 20260509000605 | 23 | 41 | 3.2 | 1.6 | 0.00 | 0.00 | 0.00 | ||
| 20260508235605 | 23 | 137 | 1.6 | 4.8 | 0.00 | 0.00 | 0.00 | ||
| 20260508235105 | 23 | 134 | 3.2 | 3.2 | 0.00 | 0.00 | 0.00 | ||
| 20260508233605 | 23 | 176 | 4.8 | 1.6 | 0.00 | 0.00 | 0.00 | ||
| 20260508231105 | 23 | 217 | 1.6 | 1.6 | 0.00 | 0.00 | 0.00 | ||
| 20260508225606 | 24 | 152 | 3.2 | 1.6 | 0.00 | 0.00 | 0.00 | ||
| 20260508225106 | 24 | 139 | 6.4 | 4.8 | 0.00 | 0.00 | 0.00 | ||
| 20260508221106 | 24 | 203 | 4.8 | 4.8 | 0.00 | 0.00 | 0.00 | ||
| 20260508220606 | 24 | 90 | 6.4 | 6.4 | 0.00 | 0.00 | 0.00 | ||
| 20260508215105 | 25 | 217 | 8.0 | 19.3 | 0.00 | 0.00 | 0.00 | ||
| 20260508214606 | 25 | 224 | 6.4 | 4.8 | 0.00 | 0.00 | 0.00 | ||
| 20260508213606 | 25 | 131 | 4.8 | 3.2 | 0.00 | 0.00 | 0.00 | ||
| 20260508211106 | 25 | 211 | 8.0 | 11.3 | 0.00 | 0.00 | 0.00 | ||
| 20260508210605 | 25 | 163 | 3.2 | 0.0 | 0.00 | 0.00 | 0.00 | ||
| 20260508205606 | 24 | 172 | 4.8 | 4.8 | 0.00 | 0.00 | 0.00 | ||
| 20260508205106 | 24 | 160 | 4.8 | 4.8 | 0.00 | 0.00 | 0.00 | ||
| 20260508204106 | 25 | 172 | 3.2 | 1.6 | 0.00 | 0.00 | 0.00 | ||
| 20260508203106 | 23 | 110 | 3.2 | 4.8 | 0.00 | 0.00 | 0.00 | ||
| 20260508201606 | 22 | 94 | 1.6 | 1.6 | 0.00 | 0.00 | 0.00 | ||
| 20260508201106 | 22 | 158 | 0.0 | 1.6 | 0.00 | 0.00 | 0.00 | ||
| 20260508195606 | 22 | 246 | 6.4 | 8.0 | 0.00 | 0.00 | 0.00 | ||
| 20260508195106 | 22 | 210 | 4.8 | 6.4 | 0.00 | 0.00 | 0.00 | ||
| 20260508194606 | 22 | 200 | 6.4 | 3.2 | 0.00 | 0.00 | 0.00 | ||
| 20260508193606 | 23 | 227 | 6.4 | 4.8 | 0.00 | 0.00 | 0.00 | ||
| 20260508191106 | 23 | 175 | 4.8 | 8.0 | 0.00 | 0.00 | 0.00 | ||
| 20260508190606 | 23 | 269 | 4.8 | 8.0 | 0.00 | 0.00 | 0.00 | ||
| 20260508185606 | 23 | 246 | 6.4 | 9.7 | 0.00 | 0.00 | 0.00 | ||
| 20260508185107 | 23 | 242 | 6.4 | 11.3 | 0.00 | 0.00 | 0.00 | ||
| 20260508184606 | 23 | 259 | 4.8 | 6.4 | 0.00 | 0.00 | 0.00 | ||
| 20260508183606 | 23 | 210 | 4.8 | 3.2 | 0.00 | 0.00 | 0.00 | ||
| 20260508183106 | 24 | 232 | 6.4 | 6.4 | 0.00 | 0.00 | 0.00 | ||
| 20260508181107 | 26 | 218 | 4.8 | 4.8 | 0.00 | 0.00 | 0.00 | ||
| 20260508180606 | 26 | 106 | 6.4 | 4.8 | 0.00 | 0.00 | 0.00 | ||
| 20260508175606 | 24 | 222 | 3.2 | 3.2 | 0.00 | 0.00 | 0.00 | ||
| 20260508175229 | 25 | 160 | 3.2 | 3.2 | 0.00 | 0.00 | 0.00 | ||
| 20260508175106 | 25 | 160 | 3.2 | 3.2 | 0.00 | 0.00 | 0.00 | ||
| 20260508174607 | 24 | 179 | 3.2 | 1.6 | 0.00 | 0.00 | 0.00 | ||
| 20260508173606 | 23 | 228 | 4.8 | 4.8 | 0.00 | 0.00 | 0.00 | ||
| 20260508173106 | 23 | 244 | 3.2 | 6.4 | 0.00 | 0.00 | 0.00 | ||
| 20260508172606 | 23 | 141 | 1.6 | 0.0 | 0.00 | 0.00 | 0.00 | ||
| 20260508171606 | 24 | 200 | 1.6 | 1.6 | 0.00 | 0.00 | 0.00 | ||
| 20260508171107 | 25 | 117 | 3.2 | 6.4 | 0.00 | 0.00 | 0.00 | ||
| 20260508170606 | 25 | 229 | 6.4 | 11.3 | 0.00 | 0.00 | 0.00 | ||
| 20260508170106 | 23 | 258 | 4.8 | 4.8 | 0.00 | 0.00 | 0.00 | ||
| 20260508165607 | 23 | 248 | 4.8 | 6.4 | 0.00 | 0.00 | 0.00 | ||
| 20260508165106 | 23 | 273 | 1.6 | 3.2 | 0.00 | 0.00 | 0.00 | ||
| 20260508164606 | 24 | 172 | 6.4 | 8.0 | 0.00 | 0.00 | 0.00 | ||
| 20260508163607 | 24 | 232 | 4.8 | 6.4 | 0.00 | 0.00 | 0.00 | ||
| 20260508163106 | 23 | 199 | 3.2 | 3.2 | 0.00 | 0.00 | 0.00 | ||
| 20260508162606 | 22 | 46 | 1.6 | 1.6 | 0.00 | 0.00 | 0.00 |